Weather History for 71597 - December, 2013

Change the Weather History Date:

Wednesday, December 18, 2013

  Actual Average Record
Temperature  
Mean Temperature 2 °F -  
Max Temperature 36 °F - - ()
Min Temperature -31 °F - - ()
Degree Days  
Heating Degree Days 62    
Moisture  
Dew Point 20 °F    
Average Humidity 84    
Maximum Humidity 100    
Minimum Humidity 51    
Precipitation  
Precipitation 0.00 in - - ()
Sea Level Pressure  
Sea Level Pressure 29.74 in    
Wind  
Wind Speed 21 mph ()    
Max Wind Speed 62 mph    
Max Gust Speed 86 mph    
Visibility 5.0 miles    
Events      
T = Trace of Precipitation, MM = Missing Value Source: Averaged Metar Reports

Daily Weather History Graph

Daily Weather History Graph

Search for Another Location

Airport or City:

Trip Planner

Search our weather history database for the weather conditions in past years. The results will help you decide how hot, cold, wet, or windy it might be!

Date:

Astronomy

Dec. 18, 2013 Rise Set
Actual Time 7:43 AM AST 4:18 PM AST
Civil Twilight 7:08 AM AST 4:53 PM AST
Nautical Twilight 6:30 AM AST 5:31 PM AST
Astronomical Twilight 5:53 AM AST 6:08 PM AST
Moon 5:51 PM AST (12/18) 8:15 AM AST (12/18)
Length of Visible Light 9h 44m
Length of Day
8h 34m
Full, 99% of the Moon is Illuminated
Dec 18
Full
Dec 25
Last Quarter
Jan 1
New
Jan 7
First Quarter
Jan 16
Full

Hourly Weather History & Observations

Time (AST) Temp. Windchill Dew Point Humidity Pressure Visibility Wind Dir Wind Speed Gust Speed Precip Events Conditions
12:00 AM 20.7 °F 14.2 °F 17.2 °F 87% 30.26 in - SE 4.6 mph - N/A   Unknown
12:20 AM 19.8 °F 13.2 °F 15.8 °F 85% - - ESE 4.6 mph - N/A   Unknown
12:40 AM 19.0 °F 9.0 °F 14.9 °F 84% - - SE 8.1 mph - N/A   Unknown
1:00 AM 17.8 °F 8.5 °F 12.9 °F 81% 30.27 in - ESE 6.9 mph - N/A   Unknown
1:20 AM 20.3 °F 9.8 °F 13.8 °F 76% - - ESE 9.2 mph - N/A   Unknown
1:40 AM 19.4 °F 9.5 °F 14.4 °F 81% - - ESE 8.1 mph - N/A   Unknown
2:00 AM -30 °F - -37 °F 51% 29.86 in 5 mi WSW 10.4 mph - -   Light Haze
2:00 AM 19.4 °F 7.2 °F 13.6 °F 78% 30.27 in - SE 11.5 mph - N/A   Unknown
2:20 AM 18.7 °F 6.3 °F 12.7 °F 78% - - SE 11.5 mph - N/A   Unknown
2:40 AM 18.7 °F 6.3 °F 12.0 °F 75% - - SE 11.5 mph - N/A   Unknown
3:00 AM 19.2 °F 10.2 °F 11.8 °F 73% 30.28 in - SE 6.9 mph - N/A   Unknown
3:20 AM 18.9 °F 9.8 °F 11.5 °F 73% - - SE 6.9 mph - N/A   Unknown
3:40 AM 19.9 °F 6.7 °F 11.7 °F 70% - - SE 13.8 mph - N/A   Unknown
4:00 AM 20.1 °F 6.4 °F 11.7 °F 70% 30.25 in - SE 15.0 mph - N/A   Unknown
4:20 AM 20.5 °F 6.4 °F 11.5 °F 68% - - SE 16.1 mph - N/A   Unknown
4:40 AM 20.7 °F 7.6 °F 11.8 °F 69% - - ESE 13.8 mph 19.6 mph N/A   Unknown
5:00 AM 20.5 °F 7.4 °F 11.5 °F 68% 30.19 in - ESE 13.8 mph 19.6 mph N/A   Unknown
5:20 AM 21.2 °F 6.4 °F 11.5 °F 66% - - ESE 18.4 mph 28.8 mph N/A   Unknown
5:40 AM 21.6 °F 6.5 °F 12.4 °F 68% - - ESE 19.6 mph 26.5 mph N/A   Unknown
6:00 AM 21.6 °F 6.5 °F 12.9 °F 69% 30.16 in - ESE 19.6 mph 27.6 mph N/A   Unknown
6:20 AM 23.9 °F 10.8 °F 14.0 °F 66% - - ESE 16.1 mph 25.3 mph N/A   Unknown
6:40 AM 22.8 °F 7.7 °F 14.5 °F 71% - - ESE 20.7 mph 29.9 mph N/A   Unknown
7:00 AM 23.0 °F 6.0 °F 15.1 °F 72% 30.10 in - ESE 27.6 mph 36.8 mph N/A   Unknown
7:20 AM 23.4 °F 6.2 °F 15.4 °F 72% - - ESE 28.8 mph 39.1 mph N/A   Unknown
7:40 AM 23.7 °F 6.1 °F 16.2 °F 73% - - ESE 31.1 mph 49.5 mph N/A   Unknown
8:00 AM -23 °F - -29 °F 61% 29.84 in 5 mi WSW 11.5 mph - -   Light Haze
8:00 AM 23.7 °F 5.4 °F 18.0 °F 79% 30.01 in - ESE 34.5 mph 52.9 mph N/A   Unknown
8:20 AM 24.4 °F 6.4 °F 18.3 °F 78% - - ESE 34.5 mph 55.2 mph N/A   Unknown
8:40 AM 24.6 °F 5.7 °F 19.0 °F 79% - - East 39.1 mph 54.1 mph N/A   Unknown
9:00 AM 25.3 °F 7.4 °F 18.7 °F 76% 29.98 in - East 35.7 mph 54.1 mph N/A   Unknown
9:20 AM 25.3 °F 7.6 °F 20.7 °F 82% - - East 34.5 mph 48.3 mph N/A   Unknown
9:40 AM 24.6 °F 6.6 °F 22.6 °F 92% - - East 34.5 mph 54.1 mph N/A   Unknown
10:00 AM 25.2 °F 6.2 °F 23.2 °F 92% 29.86 in - East 40.3 mph 54.1 mph N/A   Unknown
10:20 AM 25.7 °F 7.9 °F 23.7 °F 92% - - East 35.7 mph 54.1 mph N/A   Unknown
10:40 AM 25.9 °F 7.5 °F 24.4 °F 94% - - East 39.1 mph 56.4 mph N/A   Unknown
11:00 AM 27.0 °F 10.0 °F 25.0 °F 92% 29.81 in - East 33.4 mph 50.6 mph N/A   Unknown
11:20 AM 27.9 °F 10.8 °F 25.0 °F 89% - - East 35.7 mph 55.2 mph N/A   Unknown
11:40 AM 28.0 °F 9.9 °F 25.5 °F 90% - - East 42.6 mph 57.5 mph N/A   Unknown
12:00 PM 28.4 °F 11.6 °F 26.2 °F 92% 29.68 in - East 35.7 mph 58.7 mph N/A   Unknown
12:20 PM 28.8 °F 12.3 °F 26.4 °F 91% - - East 34.5 mph 51.8 mph N/A   Unknown
12:40 PM 28.8 °F 10.5 °F 27.1 °F 94% - - East 44.9 mph 73.6 mph N/A   Unknown
1:00 PM 29.7 °F 11.6 °F 28.4 °F 95% 29.55 in - East 46.0 mph 70.2 mph N/A   Unknown
1:20 PM 30.4 °F 13.2 °F 28.0 °F 91% - - East 42.6 mph 62.1 mph N/A   Unknown
1:40 PM 30.2 °F 13.5 °F 28.8 °F 94% - - East 39.1 mph 63.3 mph N/A   Unknown
2:00 PM -23 °F - -29 °F 58% 29.83 in 5 mi WSW 10.4 mph - -   Light Haze
2:00 PM 30.4 °F 13.5 °F 29.3 °F 96% 29.46 in - East 40.3 mph 67.9 mph N/A   Unknown
2:20 PM 30.4 °F 12.0 °F 29.5 °F 96% - - East 50.6 mph 70.2 mph N/A   Unknown
2:40 PM 30.9 °F 13.6 °F 30.0 °F 96% - - East 44.9 mph 66.7 mph N/A   Unknown
3:00 PM 30.6 °F 14.2 °F 29.8 °F 97% 29.35 in - ENE 38.0 mph 58.7 mph N/A   Unknown
3:20 PM 31.1 °F 12.0 °F 30.2 °F 96% - - East 58.7 mph 78.3 mph N/A   Unknown
3:40 PM 31.5 °F 12.1 °F 31.3 °F 99% - - East 62.1 mph 86.3 mph N/A   Unknown
4:00 PM 33.6 °F 16.0 °F 32.9 °F 97% 29.20 in - East 55.2 mph 84.0 mph N/A   Unknown
4:20 PM 35.2 °F 18.6 °F 30.2 °F 82% - - East 52.9 mph 85.2 mph N/A   Unknown
4:40 PM 35.8 °F 19.5 °F 29.8 °F 79% - - East 51.8 mph 80.6 mph N/A   Unknown
5:00 PM 34.7 °F 18.0 °F 29.5 °F 81% 29.15 in - East 51.8 mph 82.9 mph N/A   Unknown
5:20 PM 36.0 °F 20.5 °F 30.0 °F 79% - - East 46.0 mph 70.2 mph N/A   Unknown
5:40 PM 36.1 °F 20.5 °F 30.2 °F 79% - - East 48.3 mph 74.8 mph N/A   Unknown
6:00 PM 36.1 °F 28.2 °F 30.4 °F 80% 29.25 in - SE 11.5 mph 28.8 mph N/A   Unknown
6:20 PM 36.0 °F 27.5 °F 32.9 °F 89% - - NW 12.7 mph 20.7 mph N/A   Unknown
6:40 PM 34.5 °F 24.8 °F 31.6 °F 89% - - North 15.0 mph 21.9 mph N/A   Unknown
7:00 PM 33.3 °F 22.8 °F 31.8 °F 94% 29.24 in - North 16.1 mph 21.9 mph N/A   Unknown
7:20 PM 32.9 °F 22.0 °F 32.0 °F 96% - - North 17.3 mph 25.3 mph N/A   Unknown
7:40 PM 33.1 °F 20.3 °F 32.0 °F 96% - - North 24.2 mph - N/A   Unknown
8:00 PM -25 °F - -31 °F 61% 29.83 in 5 mi WSW 5.8 mph - -   Light Haze
8:00 PM 32.9 °F 19.6 °F 32.0 °F 96% 29.20 in - North 26.5 mph - N/A   Unknown
8:20 PM 32.9 °F 18.9 °F 32.0 °F 96% - - North 29.9 mph 38.0 mph N/A   Unknown
8:40 PM 30.9 °F 14.5 °F 29.7 °F 95% - - North 39.1 mph 46.0 mph N/A   Unknown
9:00 PM 29.8 °F 13.2 °F 28.6 °F 95% 29.20 in - North 38.0 mph 46.0 mph N/A   Unknown
9:20 PM 29.3 °F 12.2 °F 27.9 °F 94% - - North 39.1 mph 48.3 mph N/A   Unknown
9:40 PM 31.1 °F 15.5 °F 28.0 °F 88% - - North 34.5 mph 41.4 mph N/A   Unknown
10:00 PM 29.7 °F 13.3 °F 28.0 °F 94% 29.22 in - North 35.7 mph 44.9 mph N/A   Unknown
10:20 PM 28.9 °F 12.3 °F 29.3 °F 100% - - North 35.7 mph 42.6 mph N/A   Unknown
10:40 PM 29.1 °F 13.0 °F 28.0 °F 96% - - NNW 33.4 mph 41.4 mph N/A   Unknown
11:00 PM 29.1 °F 14.0 °F 28.0 °F 96% 29.29 in - North 28.8 mph 35.7 mph N/A   Unknown
11:20 PM 29.5 °F 13.1 °F 28.6 °F 96% - - NW 35.7 mph 42.6 mph N/A   Unknown
11:40 PM 29.5 °F 12.7 °F 28.4 °F 96% - - NW 38.0 mph 51.8 mph N/A   Unknown